PST,Max TemperatureF,Mean TemperatureF,Min TemperatureF,Max Dew PointF,MeanDew PointF,Min DewpointF,Max Humidity, Mean Humidity, Min Humidity, Max Sea Level PressureIn, Mean Sea Level PressureIn, Min Sea Level PressureIn, Max VisibilityMiles, Mean VisibilityMiles, Min VisibilityMiles, Max Wind SpeedMPH, Mean Wind SpeedMPH, Max Gust SpeedMPH,PrecipitationIn, CloudCover, Events, WindDirDegrees
2013-1-1,46,34,23,18,13,9,74,45,23,30.27,30.22,30.18,10,10,10,17,7,23,0.00,4,,42
2013-1-2,53,37,21,12,9,7,63,38,15,30.26,30.19,30.12,10,10,10,13,4,18,0.00,0,,216
2013-1-3,51,36,21,14,7,0,63,34,14,30.28,30.22,30.16,10,10,10,14,4,20,0.00,0,,264
2013-1-4,51,35,19,9,5,0,58,30,13,30.33,30.26,30.22,10,10,10,9,5,,0.00,0,,116
2013-1-5,51,37,23,10,7,1,54,31,13,30.33,30.24,30.14,10,10,10,8,5,,0.00,0,,149
2013-1-6,50,39,28,37,24,9,93,55,30,30.13,30.05,29.99,10,10,7,18,5,18,0.00,4,Rain,205
2013-1-7,55,42,30,34,26,14,93,62,21,30.15,30.08,30.03,10,10,10,13,5,,0.00,1,Rain,207
2013-1-8,62,46,30,30,26,19,80,52,27,30.23,30.17,30.11,10,10,5,9,5,,0.00,0,,147
2013-1-9,64,50,35,32,29,25,75,49,26,30.23,30.11,29.94,10,10,7,17,7,,0.00,1,,138
2013-1-10,51,42,30,37,24,16,87,57,34,30.01,29.90,29.85,10,10,7,26,13,34,0.00,4,,235
2013-1-11,41,34,24,19,18,14,69,55,36,30.09,30.04,30.01,10,10,10,24,13,31,0.00,1,,232
2013-1-12,41,29,17,18,10,5,80,51,24,30.13,30.07,30.02,10,10,10,7,3,,0.00,0,,133
2013-1-13,41,26,12,12,5,1,73,44,21,30.17,30.09,30.02,10,10,10,14,4,,0.00,0,,7
2013-1-14,35,22,10,1,-4,-8,57,30,16,30.36,30.29,30.19,10,10,10,10,2,16,0.00,0,,303
2013-1-15,50,34,17,14,5,-2,47,32,22,30.49,30.41,30.35,10,10,10,10,4,17,0.00,0,,356
2013-1-16,55,40,24,18,13,10,55,38,20,30.46,30.38,30.31,10,10,10,12,3,17,0.00,0,,312
2013-1-17,60,42,24,16,10,7,59,32,12,30.37,30.31,30.25,10,10,7,15,4,17,0.00,0,,17
2013-1-18,60,43,26,16,10,7,64,33,13,30.31,30.26,30.21,10,10,10,14,5,18,0.00,0,,111
2013-1-19,62,45,28,16,9,3,59,29,11,30.35,30.27,30.23,10,10,10,13,7,17,0.00,0,,105
2013-1-20,62,44,26,12,9,3,55,28,11,30.29,30.23,30.18,10,10,10,9,7,,0.00,0,,114
2013-1-21,64,45,26,12,5,-2,47,24,7,30.26,30.20,30.16,10,10,10,13,7,16,0.00,0,,120
2013-1-22,64,45,26,9,7,3,43,23,10,30.24,30.18,30.13,10,10,10,12,6,,0.00,0,,154
2013-1-23,60,48,35,32,14,7,38,25,14,30.19,30.15,30.10,10,10,5,21,3,24,0.00,2,,165
2013-1-24,57,50,44,48,42,30,93,75,38,30.24,30.18,30.11,10,10,10,17,6,21,0.00,5,Rain,264
2013-1-25,53,48,44,48,44,39,100,89,77,30.23,30.14,30.02,10,7,1,12,2,,0.00,7,Rain,337
2013-1-26,60,53,46,52,47,43,100,83,55,30.01,29.95,29.90,10,7,0,15,4,20,0.00,5,Fog-Rain,237
2013-1-27,50,44,37,43,33,27,93,70,43,29.99,29.95,29.91,10,10,5,20,9,26,0.00,5,,231
2013-1-28,46,40,33,27,23,18,70,54,32,30.15,30.06,29.98,10,10,4,20,14,26,0.00,3,Snow,238
2013-1-29,57,45,33,30,26,25,75,52,29,30.26,30.16,30.08,10,10,10,22,7,28,0.00,0,,217
2013-1-30,62,46,30,30,29,27,87,54,26,30.37,30.30,30.25,10,10,7,8,3,,0.00,0,,92
2013-1-31,64,48,33,32,29,28,81,53,26,30.31,30.26,30.20,10,10,10,10,4,18,0.00,0,,144